User: anonymous   Login
Location: Niverville
(49.6028°N, 97.0419°W)
Time: 02:04:48
(UTC-06:00)
Language:

BREEZE-M DEB (TANK) - Orbit

View from above orbital plane
View from above orbital plane
View from above satellite
View from above satellite

Ground track
Ground track

The orbit data is extracted from the following two-line orbital elements,

1 33374U 08044B   14353.05445435  .00002541  00000-0  61625-3 0  8042
2 33374 049.4155 201.8808 5460153 258.9461 334.5248 04.84842707109694
Epoch (UTC): 19 December 2014 01:18:24
Eccentricity: 0.5460153
inclination: 49.4155°
perigee height: 316 km
apogee height: 16419 km
right ascension of ascending node: 201.8808°
argument of perigee: 258.9461°
revolutions per day: 4.84842707
mean anomaly at epoch: 334.5248°
orbit number at epoch: 10969

The dashed part of the orbit path shows where the satellite is in the earth's shadow,  

DLR